Klawock, AK

10:44 PM AKDT on May 28, 2017 (GMT -0800)
Klawock

Weather History for PAKW - December, 2013

Change the Weather History Date:

Sunday, December 22, 2013

  Actual Average Record
Temperature  
Mean Temperature 42 °F -  
Max Temperature 46 °F 39 °F 50 °F (2005)
Min Temperature 37 °F 31 °F 12 °F (2008)
Degree Days  
Heating Degree Days 24    
Moisture  
Dew Point 42 °F    
Average Humidity 98    
Maximum Humidity 100    
Minimum Humidity 92    
Precipitation  
Precipitation 1.04 in - - ()
Sea Level Pressure  
Sea Level Pressure 29.60 in    
Wind  
Wind Speed 5 mph (SW)    
Max Wind Speed 12 mph    
Max Gust Speed 16 mph    
Visibility 5 miles    
Events Rain    
Averages and records for this station are not official NWS values.
T = Trace of Precipitation, MM = Missing Value Source: NWS Daily Summary

Daily Weather History Graph

Daily Weather History Graph

Search for Another Location

Airport or City:

Trip Planner

Search our weather history database for the weather conditions in past years. The results will help you decide how hot, cold, wet, or windy it might be!

Date:

Astronomy

Dec. 22, 2013 Rise Set
Actual Time 8:19 AM AKST 3:22 PM AKST
Civil Twilight 7:33 AM AKST 4:09 PM AKST
Nautical Twilight 6:44 AM AKST 4:57 PM AKST
Astronomical Twilight 5:59 AM AKST 5:42 PM AKST
Moon 9:36 PM AKST (12/22) 10:29 AM AKST (12/22)
Length of Visible Light 8h 35m
Length of Day
7h 02m
Waning Gibbous, 75% of the Moon is Illuminated
Dec 22
Waning Gibbous
Dec 25
Last Quarter
Jan 1
New
Jan 7
First Quarter
Jan 15
Full

Hourly Weather History & Observations

Time (AKST) Temp. Windchill Dew Point Humidity Pressure Visibility Wind Dir Wind Speed Gust Speed Precip Events Conditions
12:53 AM 37.9 °F 34.4 °F 37.0 °F 97% 29.81 in 10.0 mi Variable 4.6 mph - N/A   Overcast
1:53 AM 37.9 °F 34.4 °F 37.0 °F 97% 29.80 in 6.0 mi Variable 4.6 mph - 0.06 in Rain Light Rain
2:09 AM 39.0 °F - 37.9 °F 96% 29.78 in 4.0 mi North - - 0.03 in Rain Rain
2:37 AM 39.0 °F 32.8 °F 37.9 °F 96% 29.76 in 5.0 mi NNE 9.2 mph - 0.08 in Rain Rain
2:53 AM 39.0 °F - 37.9 °F 96% 29.77 in 6.0 mi Calm Calm - 0.10 in Rain Light Rain
3:09 AM 39.0 °F 36.8 °F 37.9 °F 96% 29.76 in 5.0 mi Variable 3.5 mph - 0.03 in Rain Rain
3:50 AM 39.2 °F 37.0 °F 39.2 °F 100% 29.75 in 5.0 mi Variable 3.5 mph - 0.10 in Rain Rain
3:53 AM 39.9 °F - 39.0 °F 97% 29.75 in 5.0 mi Calm Calm - 0.10 in Rain Rain
4:53 AM 41.0 °F 38.0 °F 39.0 °F 93% 29.71 in 10.0 mi NNE 4.6 mph - 0.06 in Rain Light Rain
5:53 AM 39.9 °F 37.8 °F 37.9 °F 93% 29.69 in 10.0 mi Variable 3.5 mph - 0.02 in Rain Light Rain
7:04 AM 42.1 °F - 39.9 °F 92% 29.64 in 9.0 mi North - - 0.00 in Rain Light Rain
7:53 AM 44.1 °F 40.8 °F 42.1 °F 93% 29.62 in 4.0 mi Variable 5.8 mph - 0.03 in Rain Light Rain
8:53 AM 45.0 °F 41.8 °F 44.1 °F 97% 29.60 in 5.0 mi Variable 5.8 mph - 0.04 in Rain Rain
9:53 AM 46.0 °F 42.5 °F 44.1 °F 93% 29.59 in 5.0 mi SSE 6.9 mph - 0.11 in Rain Light Rain
10:30 AM 46.0 °F 41.9 °F 44.1 °F 93% 29.58 in 2.5 mi SSE 8.1 mph - 0.05 in Rain Light Rain
10:53 AM 46.9 °F - 45.0 °F 93% 29.57 in 7.0 mi Variable 5.8 mph - 0.05 in Rain Light Rain
12:53 PM 46.9 °F - 46.0 °F 97% 29.53 in 2.0 mi SSW 5.8 mph - 0.05 in Rain Light Rain
12:56 PM 46.9 °F - 46.0 °F 97% 29.53 in 1.8 mi SSW 8.1 mph - 0.00 in Rain Light Rain
1:04 PM 46.0 °F 41.9 °F 46.0 °F 100% 29.53 in 1.5 mi SSW 8.1 mph - 0.02 in Rain Rain
1:21 PM 46.0 °F 43.1 °F 46.0 °F 100% 29.54 in 1.2 mi SSW 5.8 mph - 0.06 in Rain Rain
1:33 PM 46.0 °F 42.5 °F 46.0 °F 100% 29.53 in 2.0 mi SSW 6.9 mph - 0.10 in Rain Rain
1:42 PM 46.0 °F 42.5 °F 46.0 °F 100% 29.53 in 6.0 mi SW 6.9 mph - 0.11 in Rain Light Rain
1:51 PM 46.4 °F 45.2 °F 46.4 °F 100% 29.52 in 5.0 mi SSE 3.5 mph - 0.11 in Rain Light Rain
1:53 PM 46.0 °F 44.8 °F 46.0 °F 100% 29.52 in 5.0 mi South 3.5 mph - 0.11 in Rain Light Rain
2:08 PM 46.0 °F 44.8 °F 46.0 °F 100% 29.51 in 3.0 mi SSW 3.5 mph - 0.01 in Rain Light Rain
2:39 PM 46.0 °F 44.8 °F 45.0 °F 96% 29.51 in 1.5 mi Variable 3.5 mph - 0.04 in Rain Rain
2:49 PM 46.4 °F 44.3 °F 44.6 °F 93% 29.51 in 2.5 mi South 4.6 mph - 0.05 in Rain Light Rain
2:50 PM 46.4 °F 44.3 °F 44.6 °F 93% 29.51 in 2.5 mi South 4.6 mph - 0.05 in Rain Light Rain
2:53 PM 46.0 °F 43.9 °F 45.0 °F 96% 29.52 in 2.5 mi Variable 4.6 mph - 0.05 in Rain Light Rain
2:55 PM 46.0 °F 43.1 °F 45.0 °F 96% 29.51 in 3.0 mi SSW 5.8 mph - 0.00 in Rain Light Rain
3:22 PM 45.0 °F 42.6 °F 45.0 °F 100% 29.51 in 2.5 mi SW 4.6 mph - 0.05 in Rain Rain
3:32 PM 45.0 °F 42.6 °F 45.0 °F 100% 29.52 in 3.0 mi SW 4.6 mph - 0.06 in Rain Rain
3:40 PM 45.0 °F 42.6 °F 45.0 °F 100% 29.52 in 2.5 mi SW 4.6 mph - 0.08 in Rain Rain
3:47 PM 44.6 °F 43.1 °F 44.6 °F 100% 29.52 in 3.0 mi SSW 3.5 mph - 0.09 in Rain Light Rain
3:53 PM 45.0 °F 43.5 °F 45.0 °F 100% 29.52 in 3.0 mi SSW 3.5 mph - 0.10 in Rain Light Rain
4:20 PM 45.0 °F 43.5 °F 45.0 °F 100% 29.53 in 5.0 mi WSW 3.5 mph - 0.04 in Rain Light Rain
4:53 PM 44.1 °F 40.1 °F 44.1 °F 100% 29.54 in 4.0 mi West 6.9 mph - 0.08 in Rain Light Rain
5:03 PM 44.1 °F 40.8 °F 44.1 °F 100% 29.54 in 4.0 mi WSW 5.8 mph - 0.01 in Rain Light Rain
5:32 PM 44.1 °F 41.5 °F 44.1 °F 100% 29.55 in 7.0 mi SW 4.6 mph - 0.02 in Rain Light Rain
5:48 PM 44.6 °F 40.7 °F 42.8 °F 93% 29.55 in 7.0 mi WSW 6.9 mph - 0.02 in Rain Light Rain
5:53 PM 44.1 °F 39.5 °F 43.0 °F 96% 29.55 in 6.0 mi WSW 8.1 mph - 0.02 in   Overcast
6:07 PM 43.0 °F 39.5 °F 43.0 °F 100% 29.55 in 2.0 mi WSW 5.8 mph - 0.01 in Rain Light Rain
6:17 PM 43.0 °F 38.8 °F 43.0 °F 100% 29.55 in 3.0 mi WSW 6.9 mph - 0.01 in   Overcast
6:24 PM 43.0 °F 38.2 °F 43.0 °F 100% 29.55 in 2.5 mi WSW 8.1 mph - 0.01 in   Overcast
6:33 PM 43.0 °F 38.8 °F 43.0 °F 100% 29.56 in 3.0 mi WSW 6.9 mph - 0.01 in Rain Light Rain
6:40 PM 43.0 °F 38.2 °F 43.0 °F 100% 29.56 in 4.0 mi WSW 8.1 mph - 0.01 in   Overcast
6:53 PM 43.0 °F 37.2 °F 42.1 °F 97% 29.57 in 5.0 mi WSW 10.4 mph - 0.01 in   Overcast
7:06 PM 43.0 °F 37.2 °F 42.1 °F 97% 29.57 in 2.5 mi SW 10.4 mph - 0.01 in   Overcast
7:29 PM 42.1 °F 37.7 °F 42.1 °F 100% 29.58 in 4.0 mi SW 6.9 mph 16.1 mph 0.01 in   Overcast
7:40 PM 42.1 °F 39.2 °F 41.0 °F 96% 29.58 in 8.0 mi SW 4.6 mph - 0.01 in   Overcast
7:53 PM 42.1 °F 39.2 °F 41.0 °F 96% 29.59 in 6.0 mi SW 4.6 mph - 0.01 in   Overcast
8:08 PM 41.0 °F 34.3 °F 41.0 °F 100% 29.60 in 2.5 mi West 11.5 mph - 0.00 in Rain Light Rain
8:18 PM 41.0 °F 35.8 °F 41.0 °F 100% 29.60 in 3.0 mi WSW 8.1 mph - 0.01 in Rain Light Rain
8:53 PM 41.0 °F 37.1 °F 41.0 °F 100% 29.62 in 10.0 mi SW 5.8 mph - 0.01 in   Overcast
9:00 PM 41.0 °F 37.1 °F 41.0 °F 100% 29.61 in 10.0 mi SSW 5.8 mph - N/A   Overcast
9:28 PM 41.0 °F 38.0 °F 41.0 °F 100% 29.62 in 10.0 mi South 4.6 mph - 0.01 in   Overcast
9:53 PM 39.9 °F 36.7 °F 39.9 °F 100% 29.64 in 10.0 mi South 4.6 mph - 0.01 in Rain Light Rain
10:42 PM 41.0 °F 38.0 °F 39.9 °F 96% 29.65 in 8.0 mi South 4.6 mph - 0.01 in Rain Light Rain
10:53 PM 41.0 °F 39.0 °F 39.9 °F 96% 29.66 in 10.0 mi South 3.5 mph - 0.02 in Rain Light Rain
11:12 PM 39.9 °F 35.8 °F 39.9 °F 100% 29.67 in 10.0 mi SSW 5.8 mph - 0.00 in   Overcast
11:21 PM 41.0 °F 36.4 °F 39.9 °F 96% 29.67 in 10.0 mi South 6.9 mph - 0.00 in   Overcast
11:29 PM 41.0 °F 37.1 °F 39.9 °F 96% 29.67 in 10.0 mi Variable 5.8 mph - 0.00 in   Overcast